Retour au catalogue

STARLINK-33749

ActifCommunicationsVLEO
NORAD 63716·PAYLOAD·🇺🇸 United States

Lancé Apr 28, 2025 depuis Vandenberg Space Force Base

Loading…

Prochains Passages (prochaines 24 heures)

TLE

FraisSource: CelesTrak SupGP

Époque: Sep 14, 2026, 22:40 UTC

1 63716C 25087V   26257.94493056  .00039671  00000+0  12761-2 0  2578
2 63716  53.1581  59.2504 0001249  84.9963 245.9963 15.31672388    11

Suivez STARLINK-33749 en temps réel avec AllMySat

Download on the App Store